TimeAKST,TemperatureF,Dew PointF,Humidity,Sea Level PressureIn,VisibilityMPH,Wind Direction,Wind SpeedMPH,Gust SpeedMPH,PrecipitationIn,Events,Conditions,WindDirDegrees,DateUTC
12:53 AM,10.0,1.9,70,30.25,6.0,NE,3.5,-,0.00,Snow,Light Snow,50,2013-12-19 09:53:00
1:16 AM,10.4,1.4,67,30.25,3.0,Calm,Calm,-,0.00,Snow,Light Snow,0,2013-12-19 10:16:00
1:53 AM,10.9,3.0,70,30.23,3.0,NNE,3.5,-,0.00,Snow,Light Snow,30,2013-12-19 10:53:00
2:13 AM,10.4,3.2,73,30.22,2.0,NE,3.5,-,0.00,Snow,Light Snow,40,2013-12-19 11:13:00
2:21 AM,10.4,3.2,73,30.22,1.5,NE,3.5,-,0.00,Snow,Light Snow,50,2013-12-19 11:21:00
2:32 AM,10.4,3.2,73,30.19,1.2,NE,5.8,-,0.00,Snow,Light Snow,50,2013-12-19 11:32:00
2:51 AM,10.4,3.2,73,30.17,1.5,NNE,4.6,-,0.01,Snow,Light Snow,30,2013-12-19 11:51:00
2:53 AM,10.9,3.9,73,30.18,1.5,NE,3.5,-,0.01,Snow,Light Snow,40,2013-12-19 11:53:00
3:53 AM,10.9,6.1,81,30.14,1.2,ENE,3.5,-,0.02,Snow,Light Snow,70,2013-12-19 12:53:00
3:57 AM,10.4,6.8,85,30.13,1.5,NE,4.6,-,0.00,Snow,Light Snow,40,2013-12-19 12:57:00
4:20 AM,10.4,6.8,85,30.12,1.2,ENE,4.6,-,0.01,Snow,Light Snow,60,2013-12-19 13:20:00
4:44 AM,10.4,6.8,85,30.11,1.8,NE,3.5,-,0.01,Snow,Light Snow,50,2013-12-19 13:44:00
4:51 AM,12.2,6.8,79,30.11,2.0,NE,4.6,-,0.01,Snow,Light Snow,40,2013-12-19 13:51:00
4:53 AM,12.0,7.0,80,30.11,2.0,NE,4.6,-,0.01,Snow,Light Snow,40,2013-12-19 13:53:00
5:31 AM,12.2,8.6,85,30.07,2.5,Calm,Calm,-,0.01,Snow,Light Snow,0,2013-12-19 14:31:00
5:38 AM,12.2,8.6,85,30.06,3.0,East,3.5,-,0.01,Snow,Light Snow,90,2013-12-19 14:38:00
5:53 AM,12.9,8.1,81,30.06,4.0,NE,4.6,-,0.01,Snow,Light Snow,50,2013-12-19 14:53:00
6:03 AM,12.2,8.6,85,30.06,2.0,NE,3.5,-,0.00,Snow,Light Snow,40,2013-12-19 15:03:00
6:10 AM,12.2,8.6,85,30.05,3.0,Calm,Calm,-,0.00,Snow,Light Snow,0,2013-12-19 15:10:00
6:32 AM,12.2,8.6,85,30.03,2.5,Calm,Calm,-,0.00,Snow,Light Snow,0,2013-12-19 15:32:00
6:53 AM,12.9,9.0,84,30.02,2.0,NE,3.5,-,0.00,Snow,Light Snow,40,2013-12-19 15:53:00
7:31 AM,12.2,8.6,85,29.98,2.5,Calm,Calm,-,0.00,Snow,Light Snow,0,2013-12-19 16:31:00
7:40 AM,14.0,8.6,79,29.98,3.0,Calm,Calm,-,0.00,Snow,Light Snow,0,2013-12-19 16:40:00
7:53 AM,14.0,10.0,84,29.98,3.0,Calm,Calm,-,0.00,Snow,Light Snow,0,2013-12-19 16:53:00
7:56 AM,14.0,10.4,86,29.97,2.5,Calm,Calm,-,0.01,Snow,Light Snow,0,2013-12-19 16:56:00
8:07 AM,14.0,10.4,86,29.96,1.8,NE,3.5,-,0.01,Snow,Light Snow,40,2013-12-19 17:07:00
8:16 AM,14.0,8.6,79,29.96,2.0,NE,4.6,-,0.01,Snow,Light Snow,40,2013-12-19 17:16:00
8:53 AM,14.0,10.0,84,29.94,1.8,NE,3.5,-,0.01,Snow,Light Snow,50,2013-12-19 17:53:00
9:05 AM,14.0,10.4,86,29.93,2.5,NE,3.5,-,0.00,Snow,Light Snow,50,2013-12-19 18:05:00
9:51 AM,14.0,10.4,86,29.91,1.8,Calm,Calm,-,0.01,Snow,Light Snow,0,2013-12-19 18:51:00
9:53 AM,14.0,10.0,84,29.91,1.8,Calm,Calm,-,0.01,Snow,Light Snow,0,2013-12-19 18:53:00
10:18 AM,15.8,10.4,79,29.90,2.0,NE,4.6,-,0.00,Snow,Light Snow,40,2013-12-19 19:18:00
10:53 AM,15.1,10.9,84,29.90,2.5,Calm,Calm,-,0.00,Snow,Light Snow,0,2013-12-19 19:53:00
11:14 AM,15.8,10.4,79,29.89,1.8,Calm,Calm,-,0.00,Snow,Light Snow,0,2013-12-19 20:14:00
11:53 AM,16.0,10.9,81,29.86,1.5,NE,3.5,-,0.00,Snow,Light Snow,40,2013-12-19 20:53:00
12:16 PM,15.8,12.2,86,29.84,2.0,NE,3.5,-,0.00,Snow,Light Snow,40,2013-12-19 21:16:00
12:26 PM,15.8,12.2,86,29.84,2.5,North,3.5,-,0.00,Snow,Light Snow,10,2013-12-19 21:26:00
12:43 PM,17.6,12.2,79,29.83,1.8,ENE,3.5,-,0.01,Snow,Light Snow,70,2013-12-19 21:43:00
12:53 PM,17.1,12.9,84,29.83,1.8,Calm,Calm,-,0.01,Snow,Light Snow,0,2013-12-19 21:53:00
1:11 PM,17.6,12.2,79,29.82,2.0,NNE,3.5,-,0.00,Snow,Light Snow,30,2013-12-19 22:11:00
1:38 PM,17.6,12.2,79,29.82,1.8,NE,3.5,-,0.00,Snow,Light Snow,40,2013-12-19 22:38:00
1:50 PM,17.6,12.2,79,29.82,2.0,NE,3.5,-,0.00,Snow,Light Snow,50,2013-12-19 22:50:00
1:53 PM,17.1,12.9,84,29.82,2.0,NE,3.5,-,0.00,Snow,Light Snow,40,2013-12-19 22:53:00
2:51 PM,17.6,14.0,86,29.81,3.0,NE,3.5,-,0.00,Snow,Light Snow,40,2013-12-19 23:51:00
2:53 PM,18.0,14.0,84,29.81,4.0,NNE,3.5,-,0.00,Snow,Light Snow,30,2013-12-19 23:53:00
3:53 PM,15.1,10.9,84,29.80,10.0,North,3.5,-,0.00,,Scattered Clouds,10,2013-12-20 00:53:00
4:53 PM,16.0,12.0,84,29.79,10.0,ENE,3.5,-,N/A,,Partly Cloudy,60,2013-12-20 01:53:00
5:53 PM,14.0,10.0,84,29.79,8.0,Calm,Calm,-,N/A,,Clear,0,2013-12-20 02:53:00
6:53 PM,19.9,14.0,78,29.80,10.0,NNE,15.0,20.7,N/A,,Clear,20,2013-12-20 03:53:00
7:53 PM,19.9,10.0,65,29.80,10.0,North,5.8,-,N/A,,Clear,360,2013-12-20 04:53:00
8:53 PM,19.0,8.1,62,29.79,10.0,NNE,15.0,25.3,N/A,,Clear,30,2013-12-20 05:53:00
9:53 PM,19.0,8.1,62,29.76,7.0,NNE,21.9,33.4,0.00,,Clear,20,2013-12-20 06:53:00
10:53 PM,19.9,7.0,57,29.75,4.0,NE,19.6,36.8,0.00,Snow,Light Snow,50,2013-12-20 07:53:00
11:25 PM,19.4,6.8,58,29.74,2.0,NE,29.9,39.1,0.00,Snow,Light Snow,40,2013-12-20 08:25:00
11:32 PM,19.4,6.8,58,29.74,2.0,NE,24.2,39.1,0.00,Snow,Light Snow,50,2013-12-20 08:32:00
11:49 PM,19.4,6.8,58,29.74,4.0,NE,25.3,42.6,0.00,Snow,Light Snow,50,2013-12-20 08:49:00
11:53 PM,19.0,7.0,59,29.75,3.0,NE,25.3,39.1,0.00,Snow,Light Snow,40,2013-12-20 08:53:00